Location: Góry Miechowskie
(50.3599°N, 20.1803°E)
Time: 00:34:04
(UTC+00:00)

Vanguard 2 - Pass Details

Date: 15 September 2024
Orbit: 552 x 2910 km, 32.9° (Epoch: 09 October)

Event Time Altitude Azimuth Distance (km) Brightness Sun altitude
Rises 06:54:58 0° 254° (WSW) 4,228 10.9 23.9°
Reaches altitude 10° 06:58:39 10° 236° (SW) 3,638 10.8 24.4°
Maximum altitude 07:04:44 18° 197° (SSW) 3,583 11.2 25.2°
Drops below altitude 10° 07:12:35 10° 160° (SSE) 4,877 12.5 26.3°
Sets 07:18:50 0° 146° (SE) 6,286 13.2 27.2°
